THORAD AGENA D DEB

Satellite information

Favourite Embed

Satellite Type and Status

DEBRISIN ORBIT

Key statistics

Satellite THORAD AGENA D DEB at a glance.

Uptime

20339

Days in orbit

Revolutions

≈ 14.4

Per day

Orbit

SSO

Sun Synchronous Orbit

Inclination

99.0

Latest

Satellite identification and parameters

Extended collection of information and parameters for THORAD AGENA D DEB.

Object identification

Identified? True

Debris? True

Object name: THORAD AGENA D DEB

International designator: 1970-025NE

Object number (NORAD): 6216

Object ID (CCSDS): 6216

Country: UNITED STATES OF AMERICA (US)

Current information (Y/N): Y

RCS size: SMALL

Orbital parameters

Period: 100.019 minutes

Inclination: 99.0148 deg

SMA: 7137.524 km

Apoapsis: 913.278 km

Periapsis: 605.5 km

RAAN: 233.0616 deg

Eccentricy: 0.02156053

Argument of periapsis: 265.3241 deg

Mean anomaly: 92.3293 deg

Mean motion: 14.39731165 rev/day

Mean motion (dot): 0.00007877 rev/day2

B* drag term: 0.0019249788 1/REarth

Two-line elements (TLE)

Creation date: Dec. 12, 2025, 10:14 a.m.

Reference frame: TEME

Reference center: EARTH

Epoch: Dec. 12, 2025, 5:34 a.m. UTC

TLE line 0: 0 THORAD AGENA D DEB

TLE line 1: 1 06216U 70025NE 25346.23237748 .00007877 00000-0 19250-2 0 9993

TLE line 2: 2 06216 99.0148 233.0616 0215605 265.3241 92.3293 14.39731165849167

Live tracking on map

Real-time ground track for satellite THORAD AGENA D DEB.

In-orbit conjunctions

A list of the most updated potential collisions computed for object THORAD AGENA D DEB.

Target Orbit TCA Probability of collision Miss distance Type
COSMOS 2506 DEB SSO 2025-10-03 16:18:41 0.0002684387 144.0 (m) DEBRIS
COSMOS 1275 DEB LEO 2025-07-30 19:04:30 0.0008845507 77.0 (m) DEBRIS
FENGYUN 1C DEB SSO 2024-08-08 20:35:23 0.0001013712 80.0 (m) DEBRIS

Associated space launch

Meteorological research and development satellite

THORAD AGENA D DEB was lifted into orbit during the mission ‘Thorad SLV-2G Agena D | Nimbus 4’, on board a Thorad SLV-2G Agena D space rocket.

The launch took place on April 8, 1970, 8:17 a.m. from Space Launch Complex 2E.

For more information about the launch, click the button.

Launch to space Thorad SLV-2G Agena D | Nimbus 4
Thorad SLV-2G Agena D | Nimbus 4

Agency: N/A

Status: Launch Successful

Launch date: April 8, 1970, 8:17 a.m. UTC

Rocket: Thorad SLV-2G Agena D

Launch pad: Space Launch Complex 2E

Location: Vandenberg SFB, CA, USA

...

Latest news about this satellite

There are no fresh news available about this satellite. Check back as we update our databases every day.


Newsletter sign-up

Weekly statistics, charts and insights to help you stay on top of the space industry.